When you browse on this site, cookies collect data to enhance your experience and personalize the content and advertising you see.
Visit our Privacy Policy to learn more. By continuing to use the site, you agree to this use of cookies and data.
  • In Hungary
  • List of Countries
  • For 7 days
  • Water Temperature
  • Weather Map
  • News
  • Weather Widgets
  • user-avatar
    Login

    Hourly Weather Pashkino

    Today, 16 October, Wednesday

    Time Temperature Precipitation Wind Pressure Humidity
    00:00 +4°C° 0 mm 4 mps 742 mmHg 86%
    01:00 +4°C° 0 mm 4 mps 743 mmHg 87%
    02:00 +3°C° 0 mm 4 mps 743 mmHg 85%
    03:00 +1°C° 0 mm 5 mps 744 mmHg 84%
    04:00 +1°C° 0 mm 4 mps 744 mmHg 83%
    05:00 +1°C° 0 mm 5 mps 745 mmHg 84%
    06:00 0°C° 0 mm 5 mps 745 mmHg 85%
    07:00 0°C° 0 mm 5 mps 746 mmHg 86%
    08:00 +1°C° 0 mm 5 mps 747 mmHg 84%
    09:00 +1°C° 0 mm 5 mps 747 mmHg 83%
    10:00 +2°C° 0 mm 5 mps 748 mmHg 81%
    11:00 +2°C° 0 mm 5 mps 748 mmHg 76%
    12:00 +3°C° 0 mm 5 mps 749 mmHg 71%
    13:00 +4°C° 0 mm 6 mps 749 mmHg 65%
    14:00 +3°C° 0 mm 6 mps 750 mmHg 67%
    15:00 +3°C° 0 mm 5 mps 750 mmHg 69%
    16:00 +3°C° 0 mm 5 mps 751 mmHg 70%
    17:00 +2°C° 0 mm 5 mps 751 mmHg 71%
    18:00 +3°C° 0 mm 4 mps 751 mmHg 73%
    19:00 +1°C° 0 mm 4 mps 752 mmHg 74%
    20:00 +2°C° 0 mm 3 mps 752 mmHg 76%
    21:00 +3°C° 0 mm 2 mps 752 mmHg 78%
    22:00 +2°C° 0 mm 2 mps 753 mmHg 80%
    23:00 +2°C° 0 mm 2 mps 753 mmHg 83%

    Tomorrow, 17 October, Thursday

    Time Temperature Precipitation Wind Pressure Humidity
    00:00 +1°C° 0 mm 2 mps 753 mmHg 85%
    01:00 +1°C° 0 mm 2 mps 753 mmHg 88%
    02:00 +1°C° 0 mm 2 mps 753 mmHg 88%
    03:00 +1°C° 0 mm 1 mps 753 mmHg 89%
    04:00 +1°C° 0 mm 1 mps 754 mmHg 90%
    05:00 +1°C° 0 mm 1 mps 754 mmHg 90%
    06:00 +1°C° 0 mm 1 mps 753 mmHg 89%
    07:00 +1°C° 0 mm 1 mps 753 mmHg 89%
    08:00 +1°C° 0 mm 2 mps 753 mmHg 86%
    09:00 +1°C° 0 mm 3 mps 753 mmHg 82%
    10:00 +1°C° 0 mm 4 mps 753 mmHg 79%
    11:00 +1°C° 0.1 mm 4 mps 753 mmHg 81%
    12:00 +1°C° 0.1 mm 4 mps 752 mmHg 83%
    13:00 +1°C° 0.1 mm 5 mps 752 mmHg 85%
    14:00 +2°C° 0 mm 5 mps 751 mmHg 82%
    15:00 +2°C° 0 mm 6 mps 751 mmHg 78%
    16:00 +3°C° 0 mm 6 mps 750 mmHg 75%
    17:00 +3°C° 0 mm 6 mps 750 mmHg 74%
    18:00 +3°C° 0 mm 6 mps 749 mmHg 73%
    19:00 +3°C° 0 mm 7 mps 749 mmHg 72%
    20:00 +3°C° 0 mm 7 mps 749 mmHg 72%
    21:00 +3°C° 0 mm 6 mps 748 mmHg 71%
    22:00 +3°C° 0 mm 6 mps 748 mmHg 71%
    23:00 +3°C° 0 mm 6 mps 748 mmHg 72%

    Day after tomorrow, 18 October, Friday

    Time Temperature Precipitation Wind Pressure Humidity
    00:00 +3°C° 0 mm 6 mps 747 mmHg 72%
    01:00 +2°C° 0 mm 6 mps 747 mmHg 73%
    02:00 +2°C° 0 mm 6 mps 747 mmHg 73%
    03:00 +2°C° 0 mm 6 mps 746 mmHg 73%
    04:00 +2°C° 0 mm 5 mps 746 mmHg 74%
    05:00 +2°C° 0 mm 5 mps 746 mmHg 74%
    06:00 +1°C° 0 mm 5 mps 745 mmHg 75%
    07:00 +1°C° 0 mm 5 mps 745 mmHg 76%
    08:00 +2°C° 0 mm 5 mps 744 mmHg 74%
    09:00 +3°C° 0 mm 6 mps 744 mmHg 72%
    10:00 +4°C° 0 mm 6 mps 744 mmHg 69%
    11:00 +5°C° 0 mm 6 mps 744 mmHg 69%
    12:00 +7°C° 0 mm 6 mps 743 mmHg 68%
    13:00 +8°C° 0 mm 6 mps 743 mmHg 67%
    14:00 +8°C° 0 mm 5 mps 743 mmHg 69%
    15:00 +8°C° 0 mm 5 mps 742 mmHg 71%
    16:00 +8°C° 0 mm 4 mps 742 mmHg 73%
    17:00 +8°C° 0.2 mm 4 mps 742 mmHg 78%
    18:00 +9°C° 0.2 mm 3 mps 742 mmHg 83%
    19:00 +8°C° 0.2 mm 3 mps 742 mmHg 87%
    20:00 +8°C° 0.3 mm 3 mps 742 mmHg 91%
    21:00 +8°C° 0.3 mm 2 mps 742 mmHg 94%
    22:00 +8°C° 0.3 mm 2 mps 742 mmHg 97%
    23:00 +8°C° 0 mm 3 mps 742 mmHg 96%

    19 October, Saturday

    Time Temperature Precipitation Wind Pressure Humidity
    00:00 +7°C° 0 mm 3 mps 743 mmHg 95%
    01:00 +7°C° 0 mm 3 mps 743 mmHg 94%
    02:00 +5°C° 0 mm 4 mps 743 mmHg 94%
    03:00 +5°C° 0 mm 4 mps 744 mmHg 93%
    04:00 +4°C° 0 mm 4 mps 744 mmHg 92%
    05:00 +4°C° 0 mm 4 mps 745 mmHg 92%
    06:00 +3°C° 0 mm 5 mps 745 mmHg 91%
    07:00 +2°C° 0 mm 5 mps 745 mmHg 90%
    08:00 +3°C° 0 mm 5 mps 746 mmHg 89%
    09:00 +4°C° 0 mm 4 mps 746 mmHg 87%
    10:00 +4°C° 0 mm 4 mps 747 mmHg 85%
    11:00 +4°C° 0 mm 4 mps 747 mmHg 81%
    12:00 +5°C° 0 mm 4 mps 748 mmHg 77%
    13:00 +5°C° 0 mm 4 mps 748 mmHg 73%
    14:00 +5°C° 0 mm 4 mps 748 mmHg 73%
    15:00 +5°C° 0 mm 4 mps 749 mmHg 74%
    16:00 +5°C° 0 mm 3 mps 749 mmHg 74%
    17:00 +4°C° 0 mm 3 mps 749 mmHg 77%
    18:00 +4°C° 0 mm 3 mps 749 mmHg 80%
    19:00 +4°C° 0 mm 2 mps 750 mmHg 84%
    20:00 +4°C° 0 mm 2 mps 750 mmHg 84%
    21:00 +5°C° 0 mm 2 mps 751 mmHg 85%
    22:00 +5°C° 0 mm 2 mps 751 mmHg 85%
    23:00 +4°C° 0 mm 3 mps 751 mmHg 85%

    20 October, Sunday

    Time Temperature Precipitation Wind Pressure Humidity
    00:00 +4°C° 0 mm 3 mps 751 mmHg 85%
    01:00 +4°C° 0 mm 3 mps 752 mmHg 84%
    02:00 +4°C° 0 mm 3 mps 752 mmHg 83%
    03:00 +4°C° 0 mm 4 mps 752 mmHg 83%
    04:00 +3°C° 0 mm 4 mps 752 mmHg 82%
    05:00 +3°C° 0 mm 4 mps 752 mmHg 82%
    06:00 +3°C° 0 mm 4 mps 752 mmHg 82%
    07:00 +3°C° 0 mm 4 mps 753 mmHg 82%
    08:00 +3°C° 0 mm 4 mps 753 mmHg 81%
    09:00 +4°C° 0 mm 4 mps 753 mmHg 80%
    10:00 +4°C° 0 mm 4 mps 753 mmHg 78%
    11:00 +4°C° 0 mm 4 mps 753 mmHg 76%
    12:00 +5°C° 0 mm 4 mps 753 mmHg 75%
    13:00 +5°C° 0 mm 4 mps 753 mmHg 73%
    14:00 +5°C° 0 mm 4 mps 753 mmHg 73%
    15:00 +5°C° 0 mm 4 mps 753 mmHg 73%
    16:00 +5°C° 0 mm 4 mps 753 mmHg 73%
    17:00 +5°C° 0 mm 3 mps 753 mmHg 77%
    18:00 +4°C° 0 mm 3 mps 753 mmHg 81%
    19:00 +3°C° 0 mm 3 mps 753 mmHg 84%
    20:00 +3°C° 0 mm 3 mps 753 mmHg 85%
    21:00 +3°C° 0 mm 3 mps 753 mmHg 85%
    22:00 +3°C° 0 mm 3 mps 753 mmHg 86%
    23:00 +3°C° 0 mm 3 mps 752 mmHg 86%

    21 October, Monday

    Time Temperature Precipitation Wind Pressure Humidity
    00:00 +3°C° 0 mm 3 mps 752 mmHg 87%
    01:00 +3°C° 0 mm 4 mps 752 mmHg 88%
    02:00 +3°C° 0 mm 4 mps 752 mmHg 88%
    03:00 +3°C° 0 mm 4 mps 751 mmHg 88%
    04:00 +3°C° 0 mm 4 mps 751 mmHg 88%
    05:00 +2°C° 0.2 mm 5 mps 751 mmHg 89%
    06:00 +3°C° 0.2 mm 5 mps 751 mmHg 90%
    07:00 +3°C° 0.2 mm 5 mps 751 mmHg 91%
    08:00 +4°C° 0.4 mm 4 mps 751 mmHg 92%
    09:00 +5°C° 0.4 mm 4 mps 751 mmHg 94%
    10:00 +5°C° 0.4 mm 3 mps 751 mmHg 96%
    11:00 +7°C° 0 mm 3 mps 751 mmHg 95%
    12:00 +7°C° 0 mm 3 mps 751 mmHg 94%
    13:00 +8°C° 0 mm 2 mps 751 mmHg 93%
    14:00 +8°C° 0 mm 2 mps 751 mmHg 94%
    15:00 +8°C° 0 mm 2 mps 751 mmHg 94%
    16:00 +8°C° 0 mm 2 mps 751 mmHg 95%
    17:00 +8°C° 0 mm 2 mps 751 mmHg 96%
    18:00 +8°C° 0 mm 2 mps 750 mmHg 97%
    19:00 +8°C° 0 mm 2 mps 750 mmHg 98%
    20:00 +8°C° 0 mm 2 mps 750 mmHg 97%
    21:00 +8°C° 0 mm 3 mps 749 mmHg 97%
    22:00 +8°C° 0 mm 3 mps 749 mmHg 97%
    23:00 +8°C° 0 mm 3 mps 748 mmHg 96%
    Show more